Regional Weather Roundup
Issued by NWS Charleston, WV

Home | Current Version | Previous Version | Graphics & Text | Print | Product List | Glossary On
Versions: 1 2 3 4 5 6 7 8 9 10 11 12 13 14 15 16 17 18 19 20 21 22 23 24 25 26 27 28 29 30 31 32 33 34 35 36 37 38 39 40 41 42 43 44 45 46 47 48 49 50
000
ASUS41 KRLX 051710
RWRRLX
West Virginia Regional Weather Roundup
National Weather Service Charleston WV
1200 PM EST MON DEC 05 2016

Note: "fair" indicates few or no clouds below 12,000 feet with no
significant weather and/or obstructions to visibility.

WVZ003-051800-
Northern Panhandle of West Virginia

CITY           SKY/WX    TMP DP  RH WIND       PRES   REMARKS
WHEELING       CLOUDY    38  28  67 VRB3      30.08F
$$

WVZ009-051800-
Northwest West Virginia

CITY           SKY/WX    TMP DP  RH WIND       PRES   REMARKS
PARKERSBURG    CLOUDY    43  32  65 NW5       30.14S
$$

WVZ006-051800-
Western West Virginia

CITY           SKY/WX    TMP DP  RH WIND       PRES   REMARKS
HUNTINGTON     CLOUDY    47  35  63 CALM      30.10F
$$

WVZ015-051800-
West Central West Virginia

CITY           SKY/WX    TMP DP  RH WIND       PRES   REMARKS
CHARLESTON     PTSUNNY   51  34  52 NW3       30.08F
$$

WVZ022-031-051800-
North Central West Virginia

CITY           SKY/WX    TMP DP  RH WIND       PRES   REMARKS
CLARKSBURG     PTSUNNY   45  34  65 W5        30.07S
MORGANTOWN     PTSUNNY   48  32  53 VRB5      30.06F
$$

WVZ025-035-042-045-051800-
Southern West Virginia

CITY           SKY/WX    TMP DP  RH WIND       PRES   REMARKS
BECKLEY        CLOUDY    44  33  65 N5        30.05F
LOGAN          CLOUDY    46  36  66 CALM      30.07F
BLUEFIELD      MOSUNNY   44  34  67 CALM      30.04F
LEWISBURG      MOSUNNY   44  32  64 CALM      30.04F
$$

WVZ047-051800-
Northern Mountains of West Virginia

CITY           SKY/WX    TMP DP  RH WIND       PRES   REMARKS
ELKINS         PTSUNNY   45  34  65 NW5       30.05S
$$

WVZ052-051800-
Eastern Panhandle of West Virginia

CITY           SKY/WX    TMP DP  RH WIND       PRES   REMARKS
MARTINSBURG    PTSUNNY   50  35  56 NW10G18   30.01S
PETERSBURG     SUNNY     53  35  50 W10       30.03S
$$



USA.gov is the U.S. government's official web portal to all federal, state and local government web resources and services.